Time,TemperatureF,DewpointF,PressureIn,WindDirection,WindDirectionDegrees,WindSpeedMPH,WindSpeedGustMPH,Humidity,HourlyPrecipIn,Conditions,Clouds,dailyrainin,SoftwareType,DateUTC
2013-03-31 00:01:00,49.0,49.0,30.06,South,191,12.0,18.0,100,0.00,,,0.00,,2013-03-31 07:01:00,
2013-03-31 00:11:00,49.0,49.0,30.06,South,191,12.0,18.0,100,0.00,,,0.00,,2013-03-31 07:11:00,
2013-03-31 00:21:00,49.0,49.0,30.05,WSW,249,14.0,20.0,100,0.00,,,0.00,,2013-03-31 07:21:00,
2013-03-31 00:31:00,49.0,49.0,30.05,WSW,252,5.0,14.0,100,0.00,,,0.00,,2013-03-31 07:31:00,
2013-03-31 00:42:00,49.0,49.0,30.05,WSW,252,5.0,14.0,100,0.00,,,0.00,,2013-03-31 07:42:00,
2013-03-31 00:52:00,49.0,49.0,30.05,SSW,193,9.0,16.0,100,0.00,,,0.00,,2013-03-31 07:52:00,
2013-03-31 01:01:00,49.0,49.0,30.05,SW,222,9.0,13.0,100,0.00,,,0.00,,2013-03-31 08:01:00,
2013-03-31 01:11:00,49.0,49.0,30.05,SW,222,9.0,13.0,100,0.00,,,0.00,,2013-03-31 08:11:00,
2013-03-31 01:21:00,49.0,49.0,30.04,SSW,198,7.0,13.0,100,0.00,,,0.00,,2013-03-31 08:21:00,
2013-03-31 01:31:00,49.0,49.0,30.04,SW,215,3.0,6.0,100,0.00,,,0.00,,2013-03-31 08:31:00,
2013-03-31 01:41:00,49.0,49.0,30.04,SW,215,3.0,6.0,100,0.00,,,0.00,,2013-03-31 08:41:00,
2013-03-31 01:52:00,49.0,49.0,30.04,SSW,201,3.0,7.0,100,0.00,,,0.00,,2013-03-31 08:52:00,
2013-03-31 02:01:00,49.0,49.0,30.04,SSW,203,6.0,9.0,100,0.00,,,0.00,,2013-03-31 09:01:00,
2013-03-31 02:11:00,49.0,49.0,30.04,SSW,203,6.0,9.0,100,0.00,,,0.00,,2013-03-31 09:11:00,
2013-03-31 02:21:00,49.0,49.0,30.04,SW,218,1.0,3.0,100,0.00,,,0.00,,2013-03-31 09:21:00,
2013-03-31 02:32:00,49.0,49.0,30.04,SSW,198,4.0,7.0,100,0.00,,,0.00,,2013-03-31 09:32:00,
2013-03-31 02:42:00,49.0,49.0,30.04,SSW,198,4.0,7.0,100,0.00,,,0.00,,2013-03-31 09:42:00,
2013-03-31 02:53:00,49.0,49.0,30.03,SW,218,2.0,7.0,100,0.00,,,0.00,,2013-03-31 09:53:00,
2013-03-31 03:02:00,49.0,49.0,30.03,SW,233,3.0,8.0,100,0.00,,,0.00,,2013-03-31 10:02:00,
2013-03-31 03:12:00,49.0,49.0,30.03,SW,233,3.0,8.0,100,0.00,,,0.00,,2013-03-31 10:12:00,
2013-03-31 03:22:00,49.0,49.0,30.03,North,0,0.0,8.0,100,0.00,,,0.00,,2013-03-31 10:22:00,
2013-03-31 03:32:00,49.0,49.0,30.03,SSW,211,2.0,5.0,100,0.00,,,0.00,,2013-03-31 10:32:00,
2013-03-31 03:41:00,49.0,49.0,30.03,SSW,211,2.0,5.0,100,0.00,,,0.00,,2013-03-31 10:41:00,
2013-03-31 03:53:00,49.0,49.0,30.03,North,0,0.0,7.0,100,0.00,,,0.00,,2013-03-31 10:53:00,
2013-03-31 04:02:00,49.0,49.0,30.02,SW,215,2.0,5.0,100,0.00,,,0.00,,2013-03-31 11:02:00,
2013-03-31 04:11:00,49.0,49.0,30.02,SW,215,2.0,5.0,100,0.00,,,0.00,,2013-03-31 11:11:00,
2013-03-31 04:21:00,49.0,49.0,30.02,North,0,0.0,0.0,100,0.00,,,0.00,,2013-03-31 11:21:00,
2013-03-31 04:32:00,49.0,49.0,30.03,North,0,0.0,0.0,100,0.00,,,0.00,,2013-03-31 11:32:00,
2013-03-31 04:42:00,49.0,49.0,30.03,North,0,0.0,0.0,100,0.00,,,0.00,,2013-03-31 11:42:00,
2013-03-31 04:52:00,48.0,48.0,30.02,North,0,0.0,0.0,100,0.00,,,0.00,,2013-03-31 11:52:00,
2013-03-31 05:02:00,48.0,48.0,30.02,North,0,0.0,0.0,100,0.00,,,0.00,,2013-03-31 12:02:00,
2013-03-31 05:11:00,48.0,48.0,30.02,North,0,0.0,0.0,100,0.00,,,0.00,,2013-03-31 12:11:00,
2013-03-31 05:21:00,48.0,48.0,30.02,North,0,0.0,0.0,100,0.00,,,0.00,,2013-03-31 12:21:00,
2013-03-31 05:32:00,47.0,47.0,30.02,North,0,0.0,0.0,100,0.00,,,0.00,,2013-03-31 12:32:00,
2013-03-31 05:42:00,47.0,47.0,30.02,North,0,0.0,0.0,100,0.00,,,0.00,,2013-03-31 12:42:00,
2013-03-31 05:52:00,47.0,47.0,30.02,North,0,0.0,0.0,100,0.00,,,0.00,,2013-03-31 12:52:00,
2013-03-31 06:01:00,46.0,46.0,30.02,North,0,0.0,0.0,100,0.00,,,0.00,,2013-03-31 13:01:00,
2013-03-31 06:11:00,46.0,46.0,30.02,North,0,0.0,0.0,100,0.00,,,0.00,,2013-03-31 13:11:00,
2013-03-31 06:21:00,46.0,46.0,30.02,North,0,0.0,0.0,100,0.00,,,0.00,,2013-03-31 13:21:00,
2013-03-31 06:31:00,46.0,46.0,30.02,North,0,0.0,0.0,100,0.00,,,0.00,,2013-03-31 13:31:00,
2013-03-31 06:41:00,46.0,46.0,30.02,North,0,0.0,0.0,100,0.00,,,0.00,,2013-03-31 13:41:00,
2013-03-31 06:52:00,46.0,46.0,30.01,North,0,0.0,0.0,100,0.00,,,0.00,,2013-03-31 13:52:00,
2013-03-31 07:01:00,46.0,46.0,30.01,North,0,0.0,0.0,100,0.00,,,0.00,,2013-03-31 14:01:00,
2013-03-31 07:11:00,46.0,46.0,30.01,North,0,0.0,0.0,100,0.00,,,0.00,,2013-03-31 14:11:00,
2013-03-31 07:21:00,46.0,46.0,30.01,North,0,0.0,0.0,100,0.00,,,0.00,,2013-03-31 14:21:00,
2013-03-31 07:32:00,46.0,46.0,30.01,North,0,0.0,0.0,100,0.00,,,0.00,,2013-03-31 14:32:00,
2013-03-31 07:42:00,46.0,46.0,30.01,North,0,0.0,0.0,100,0.00,,,0.00,,2013-03-31 14:42:00,
2013-03-31 07:52:00,46.0,46.0,30.01,North,0,0.0,0.0,100,0.00,,,0.00,,2013-03-31 14:52:00,
2013-03-31 08:01:00,46.0,46.0,30.01,North,0,0.0,0.0,100,0.00,,,0.00,,2013-03-31 15:01:00,
2013-03-31 08:11:00,46.0,46.0,30.01,North,0,0.0,0.0,100,0.00,,,0.00,,2013-03-31 15:11:00,
2013-03-31 08:21:00,47.0,47.0,30.02,North,0,0.0,0.0,100,0.00,,,0.00,,2013-03-31 15:21:00,
2013-03-31 08:33:00,48.0,48.0,30.01,North,0,0.0,0.0,100,0.00,,,0.00,,2013-03-31 15:33:00,
2013-03-31 08:42:00,48.0,48.0,30.01,North,0,0.0,0.0,100,0.00,,,0.00,,2013-03-31 15:42:00,
2013-03-31 08:53:00,50.0,50.0,30.01,North,0,0.0,0.0,100,0.00,,,0.00,,2013-03-31 15:53:00,
2013-03-31 09:02:00,51.0,51.0,30.01,North,0,0.0,0.0,100,0.00,,,0.00,,2013-03-31 16:02:00,
2013-03-31 09:12:00,51.0,51.0,30.01,North,0,0.0,0.0,100,0.00,,,0.00,,2013-03-31 16:12:00,
2013-03-31 09:22:00,53.0,53.0,30.01,North,0,0.0,0.0,100,0.00,,,0.00,,2013-03-31 16:22:00,
2013-03-31 09:32:00,54.0,54.0,30.01,North,0,0.0,0.0,100,0.00,,,0.00,,2013-03-31 16:32:00,
2013-03-31 09:42:00,54.0,54.0,30.01,North,0,0.0,0.0,100,0.00,,,0.00,,2013-03-31 16:42:00,
2013-03-31 09:53:00,55.0,55.0,30.01,North,0,0.0,0.0,100,0.00,,,0.00,,2013-03-31 16:53:00,
2013-03-31 10:02:00,57.0,57.0,30.01,SSW,193,4.0,7.0,99,0.00,,,0.00,,2013-03-31 17:02:00,
2013-03-31 10:12:00,57.0,57.0,30.01,SSW,193,4.0,7.0,99,0.00,,,0.00,,2013-03-31 17:12:00,
2013-03-31 10:22:00,57.0,54.0,30.01,WSW,242,5.0,7.0,89,0.00,,,0.00,,2013-03-31 17:22:00,
2013-03-31 10:31:00,57.0,53.0,30.02,SW,235,6.0,8.0,86,0.00,,,0.00,,2013-03-31 17:31:00,
2013-03-31 10:42:00,57.0,53.0,30.02,SW,235,6.0,8.0,86,0.00,,,0.00,,2013-03-31 17:42:00,
2013-03-31 10:52:00,57.0,52.0,30.03,WSW,253,6.0,11.0,83,0.00,,,0.00,,2013-03-31 17:52:00,
2013-03-31 11:01:00,56.0,51.0,30.03,WSW,246,7.0,9.0,83,0.00,,,0.00,,2013-03-31 18:01:00,
2013-03-31 11:12:00,56.0,51.0,30.03,WSW,246,7.0,9.0,83,0.00,,,0.00,,2013-03-31 18:12:00,
2013-03-31 11:21:00,56.0,51.0,30.04,SSW,207,7.0,11.0,84,0.00,,,0.00,,2013-03-31 18:21:00,
2013-03-31 11:31:00,56.0,52.0,30.04,West,267,4.0,11.0,85,0.00,,,0.00,,2013-03-31 18:31:00,
2013-03-31 11:41:00,56.0,52.0,30.04,West,267,4.0,11.0,85,0.00,,,0.00,,2013-03-31 18:41:00,
2013-03-31 11:52:00,55.0,51.0,30.05,WSW,239,8.0,11.0,85,0.00,,,0.00,,2013-03-31 18:52:00,
2013-03-31 12:02:00,54.0,51.0,30.05,WSW,253,10.0,13.0,88,0.00,,,0.00,,2013-03-31 19:02:00,
2013-03-31 12:11:00,54.0,51.0,30.05,WSW,253,10.0,13.0,88,0.00,,,0.00,,2013-03-31 19:11:00,
2013-03-31 12:21:00,54.0,51.0,30.05,South,187,8.0,14.0,90,0.00,,,0.00,,2013-03-31 19:21:00,
2013-03-31 12:32:00,53.0,51.0,30.06,WSW,247,7.0,11.0,92,0.00,,,0.00,,2013-03-31 19:32:00,
2013-03-31 12:42:00,53.0,51.0,30.06,WSW,247,7.0,11.0,92,0.00,,,0.00,,2013-03-31 19:42:00,
2013-03-31 12:53:00,53.0,51.0,30.05,WSW,245,10.0,13.0,93,0.00,,,0.00,,2013-03-31 19:53:00,
2013-03-31 13:02:00,54.0,52.0,30.05,West,271,9.0,15.0,93,0.00,,,0.00,,2013-03-31 20:02:00,
2013-03-31 13:11:00,54.0,52.0,30.05,West,271,9.0,15.0,93,0.00,,,0.00,,2013-03-31 20:11:00,
2013-03-31 13:21:00,54.0,52.0,30.05,SW,219,13.0,17.0,93,0.00,,,0.00,,2013-03-31 20:21:00,
2013-03-31 13:32:00,54.0,52.0,30.05,South,189,6.0,17.0,92,0.00,,,0.00,,2013-03-31 20:32:00,
2013-03-31 13:42:00,54.0,52.0,30.05,South,189,6.0,17.0,92,0.00,,,0.00,,2013-03-31 20:42:00,
2013-03-31 13:52:00,53.0,51.0,30.05,SSW,208,7.0,16.0,92,0.00,,,0.00,,2013-03-31 20:52:00,
2013-03-31 14:02:00,54.0,52.0,30.05,SSW,193,8.0,12.0,93,0.00,,,0.00,,2013-03-31 21:02:00,
2013-03-31 14:11:00,54.0,52.0,30.05,SSW,193,8.0,12.0,93,0.00,,,0.00,,2013-03-31 21:11:00,
2013-03-31 14:21:00,55.0,52.0,30.05,SW,215,7.0,15.0,91,0.00,,,0.00,,2013-03-31 21:21:00,
2013-03-31 14:33:00,55.0,52.0,30.05,SW,225,12.0,18.0,89,0.00,,,0.00,,2013-03-31 21:33:00,
2013-03-31 14:42:00,55.0,52.0,30.05,SW,225,12.0,18.0,89,0.00,,,0.00,,2013-03-31 21:42:00,
2013-03-31 14:53:00,56.0,52.0,30.05,SSE,161,12.0,16.0,87,0.00,,,0.00,,2013-03-31 21:53:00,
2013-03-31 15:02:00,57.0,53.0,30.04,SSW,208,13.0,18.0,85,0.00,,,0.00,,2013-03-31 22:02:00,
2013-03-31 15:12:00,57.0,53.0,30.04,SSW,208,13.0,18.0,85,0.00,,,0.00,,2013-03-31 22:12:00,
2013-03-31 15:23:00,56.0,51.0,30.04,SSW,212,16.0,18.0,84,0.00,,,0.00,,2013-03-31 22:23:00,
2013-03-31 15:32:00,56.0,52.0,30.04,WSW,252,10.0,18.0,85,0.00,,,0.00,,2013-03-31 22:32:00,
2013-03-31 15:42:00,56.0,52.0,30.04,WSW,252,10.0,18.0,85,0.00,,,0.00,,2013-03-31 22:42:00,
2013-03-31 15:53:00,56.0,52.0,30.04,SSW,208,12.0,18.0,85,0.00,,,0.00,,2013-03-31 22:53:00,
2013-03-31 16:02:00,56.0,52.0,30.05,SSW,210,14.0,19.0,85,0.00,,,0.00,,2013-03-31 23:02:00,
2013-03-31 16:12:00,56.0,52.0,30.05,SSW,210,14.0,19.0,85,0.00,,,0.00,,2013-03-31 23:12:00,
2013-03-31 16:21:00,56.0,52.0,30.05,SSW,205,14.0,20.0,85,0.00,,,0.00,,2013-03-31 23:21:00,
2013-03-31 16:31:00,55.0,52.0,30.05,SSW,204,13.0,18.0,88,0.00,,,0.00,,2013-03-31 23:31:00,
2013-03-31 16:41:00,55.0,52.0,30.05,SSW,204,13.0,18.0,88,0.00,,,0.00,,2013-03-31 23:41:00,
2013-03-31 16:52:00,55.0,52.0,30.05,WSW,242,13.0,20.0,88,0.00,,,0.00,,2013-03-31 23:52:00,
2013-03-31 17:02:00,55.0,51.0,30.04,North,0,9.0,21.0,87,0.00,,,0.00,,2013-04-01 00:02:00,
2013-03-31 17:11:00,55.0,51.0,30.04,North,0,9.0,21.0,87,0.00,,,0.00,,2013-04-01 00:11:00,
2013-03-31 17:21:00,54.0,51.0,30.05,West,273,9.0,20.0,88,0.00,,,0.00,,2013-04-01 00:21:00,
2013-03-31 17:31:00,54.0,51.0,30.05,WSW,242,8.0,10.0,88,0.00,,,0.00,,2013-04-01 00:31:00,
2013-03-31 17:42:00,54.0,51.0,30.05,WSW,242,8.0,10.0,88,0.00,,,0.00,,2013-04-01 00:42:00,
2013-03-31 17:52:00,54.0,51.0,30.05,SW,233,10.0,17.0,90,0.00,,,0.00,,2013-04-01 00:52:00,
2013-03-31 18:01:00,55.0,52.0,30.04,South,191,12.0,15.0,88,0.00,,,0.00,,2013-04-01 01:01:00,
2013-03-31 18:11:00,55.0,52.0,30.04,South,191,12.0,15.0,88,0.00,,,0.00,,2013-04-01 01:11:00,
2013-03-31 18:22:00,56.0,52.0,30.04,WSW,254,15.0,18.0,87,0.00,,,0.00,,2013-04-01 01:22:00,
2013-03-31 18:31:00,54.0,51.0,30.05,South,176,11.0,14.0,89,0.00,,,0.00,,2013-04-01 01:31:00,
2013-03-31 18:42:00,54.0,51.0,30.05,South,176,11.0,14.0,89,0.00,,,0.00,,2013-04-01 01:42:00,
2013-03-31 18:52:00,53.0,50.0,30.05,SW,236,10.0,16.0,91,0.00,,,0.00,,2013-04-01 01:52:00,
2013-03-31 19:02:00,53.0,51.0,30.06,SW,214,8.0,17.0,92,0.00,,,0.00,,2013-04-01 02:02:00,
2013-03-31 19:11:00,53.0,51.0,30.06,SW,214,8.0,17.0,92,0.00,,,0.00,,2013-04-01 02:11:00,
2013-03-31 19:21:00,52.0,50.0,30.06,South,180,10.0,11.0,93,0.00,,,0.00,,2013-04-01 02:21:00,
2013-03-31 19:32:00,52.0,50.0,30.06,SSW,196,9.0,13.0,94,0.00,,,0.00,,2013-04-01 02:32:00,
2013-03-31 19:42:00,52.0,50.0,30.06,SSW,196,9.0,13.0,94,0.00,,,0.00,,2013-04-01 02:42:00,
2013-03-31 19:52:00,52.0,50.0,30.06,SW,224,7.0,11.0,94,0.00,,,0.00,,2013-04-01 02:52:00,
2013-03-31 20:02:00,52.0,50.0,30.06,SSW,203,6.0,12.0,94,0.00,,,0.00,,2013-04-01 03:02:00,
2013-03-31 20:11:00,52.0,50.0,30.06,SSW,203,6.0,12.0,94,0.00,,,0.00,,2013-04-01 03:11:00,
2013-03-31 20:22:00,52.0,51.0,30.06,SW,221,10.0,11.0,95,0.00,,,0.00,,2013-04-01 03:22:00,
2013-03-31 20:32:00,52.0,51.0,30.06,SW,219,6.0,11.0,95,0.00,,,0.00,,2013-04-01 03:32:00,
2013-03-31 20:42:00,52.0,51.0,30.06,SW,219,6.0,11.0,95,0.00,,,0.00,,2013-04-01 03:42:00,
2013-03-31 20:53:00,52.0,51.0,30.06,SW,229,5.0,13.0,96,0.00,,,0.00,,2013-04-01 03:53:00,
2013-03-31 21:02:00,51.0,50.0,30.07,SSW,208,5.0,13.0,97,0.00,,,0.00,,2013-04-01 04:02:00,
2013-03-31 21:12:00,51.0,50.0,30.07,SSW,208,5.0,13.0,97,0.00,,,0.00,,2013-04-01 04:12:00,
2013-03-31 21:22:00,51.0,50.0,30.07,SW,232,5.0,11.0,98,0.00,,,0.00,,2013-04-01 04:22:00,
2013-03-31 21:32:00,51.0,51.0,30.07,SSW,201,7.0,11.0,99,0.00,,,0.00,,2013-04-01 04:32:00,
2013-03-31 21:42:00,51.0,51.0,30.07,SSW,201,7.0,11.0,99,0.00,,,0.00,,2013-04-01 04:42:00,
2013-03-31 21:53:00,51.0,51.0,30.08,South,189,5.0,11.0,100,0.00,,,0.00,,2013-04-01 04:53:00,
2013-03-31 22:02:00,51.0,51.0,30.07,SW,214,7.0,11.0,100,0.00,,,0.00,,2013-04-01 05:02:00,
2013-03-31 22:11:00,51.0,51.0,30.07,SW,214,7.0,11.0,100,0.00,,,0.00,,2013-04-01 05:11:00,
2013-03-31 22:21:00,51.0,51.0,30.08,SW,219,6.0,13.0,100,0.00,,,0.00,,2013-04-01 05:21:00,
2013-03-31 22:32:00,50.0,50.0,30.07,SSW,196,9.0,13.0,100,0.00,,,0.00,,2013-04-01 05:32:00,
2013-03-31 22:42:00,50.0,50.0,30.07,SSW,196,9.0,13.0,100,0.00,,,0.00,,2013-04-01 05:42:00,
2013-03-31 22:52:00,50.0,50.0,30.08,SSW,201,4.0,12.0,100,0.00,,,0.00,,2013-04-01 05:52:00,
2013-03-31 23:01:00,50.0,50.0,30.08,SSW,201,6.0,10.0,100,0.00,,,0.00,,2013-04-01 06:01:00,
2013-03-31 23:12:00,50.0,50.0,30.08,SSW,201,6.0,10.0,100,0.00,,,0.00,,2013-04-01 06:12:00,
2013-03-31 23:22:00,50.0,50.0,30.08,SSW,207,7.0,12.0,100,0.00,,,0.00,,2013-04-01 06:22:00,
2013-03-31 23:32:00,50.0,50.0,30.08,SSW,193,7.0,11.0,100,0.00,,,0.00,,2013-04-01 06:32:00,
2013-03-31 23:42:00,50.0,50.0,30.08,SSW,193,7.0,11.0,100,0.00,,,0.00,,2013-04-01 06:42:00,
2013-03-31 23:52:00,50.0,50.0,30.08,SSW,212,8.0,13.0,100,0.00,,,0.00,,2013-04-01 06:52:00,